CW8428 Weather Reports


Display with metric or nautical units.
time (UTC)temp
F
wind
direction
speed
MPH
gust
MPH
rain 1hr
in
rain 24hr
in
rain mn
in
humidity
%
barometer
mb
20260507151628 48 284 5.0 7.0 0.00 0.00 0.00 63 1019.0
20260507150618 48 273 3.0 4.0 0.00 0.00 0.00 64 1019.0
20260507145619 48 290 2.0 3.0 0.00 0.00 0.00 63 1019.0
20260507144626 47 299 2.0 3.0 0.00 0.00 0.00 66 1019.0
20260507143619 46 314 1.0 3.0 0.00 0.00 0.00 68 1019.2
20260507142627 44 317 0.0 3.0 0.00 0.00 0.00 73 1019.2
20260507141615 43 321 2.0 4.0 0.00 0.00 0.00 76 1019.2
20260507140629 41 259 1.0 3.0 0.00 0.00 0.00 76 1019.2
20260507135648 40 259 1.0 2.0 0.00 0.00 0.00 79 1019.2
20260507134616 39 259 1.0 3.0 0.00 0.00 0.00 81 1019.3
20260507133623 38 259 0.0 1.0 0.00 0.00 0.00 82 1019.2
20260507132618 37 259 0.0 3.0 0.00 0.00 0.00 82 1019.2
20260507131629 37 287 2.0 3.0 0.00 0.00 0.00 82 1019.3
20260507130616 37 287 2.0 3.0 0.00 0.00 0.00 84 1019.3
20260507125617 36 308 2.0 3.0 0.00 0.00 0.00 85 1019.3
20260507124629 36 261 1.0 3.0 0.00 0.00 0.00 84 1019.4
20260507123617 36 262 1.0 2.0 0.00 0.00 0.00 85 1019.5
20260507122626 36 262 1.0 2.0 0.00 0.00 0.00 84 1019.6
20260507121615 36 262 0.0 2.0 0.00 0.00 0.00 85 1019.6
20260507120629 36 262 0.0 2.0 0.00 0.00 0.00 85 1019.5
20260507115628 35 262 0.0 1.0 0.00 0.00 0.00 85 1019.2
20260507114618 35 262 1.0 4.0 0.00 0.00 0.00 84 1019.3
20260507113646 36 281 1.0 2.0 0.00 0.00 0.00 84 1019.2
20260507112652 36 281 0.0 0.0 0.00 0.00 0.00 84 1019.2
20260507111623 36 281 0.0 0.0 0.00 0.00 0.00 83 1019.3
20260507110631 36 281 0.0 0.0 0.00 0.00 0.00 83 1019.4
20260507105613 36 281 1.0 3.0 0.00 0.00 0.00 83 1019.3
20260507104624 36 281 0.0 0.0 0.00 0.00 0.00 82 1019.4
20260507103619 36 281 1.0 2.0 0.00 0.00 0.00 82 1019.4
20260507102630 37 281 2.0 3.0 0.00 0.00 0.00 81 1019.5
20260507101619 36 281 1.0 2.0 0.00 0.00 0.00 82 1019.5
20260507100614 36 281 1.0 2.0 0.00 0.00 0.00 81 1019.5
20260507095615 36 281 1.0 3.0 0.00 0.02 0.00 81 1019.4
20260507094641 36 282 2.0 3.0 0.00 0.02 0.00 80 1019.6
20260507093628 37 298 1.0 2.0 0.00 0.02 0.00 78 1019.6
20260507092620 38 298 1.0 2.0 0.00 0.02 0.00 77 1019.7
20260507091630 39 298 0.0 0.0 0.00 0.02 0.00 75 1019.7
20260507090617 39 298 0.0 0.0 0.00 0.02 0.00 76 1019.9
20260507085618 39 298 0.0 1.0 0.00 0.02 0.00 76 1020.1
20260507084630 39 298 0.0 1.0 0.00 0.02 0.00 76 1020.0
20260507083620 39 298 0.0 2.0 0.00 0.02 0.00 75 1019.9
20260507082628 39 298 0.0 2.0 0.00 0.02 0.00 76 1020.2
20260507081636 38 298 1.0 3.0 0.00 0.02 0.00 76 1020.3
20260507080643 39 298 1.0 5.0 0.00 0.02 0.00 73 1020.2
20260507075627 41 213 2.0 4.0 0.00 0.08 0.00 68 1020.2
20260507074616 42 196 2.0 3.0 0.00 0.08 0.00 68 1020.2
20260507073624 42 196 0.0 0.0 0.00 0.08 0.00 67 1020.3
20260507072617 42 196 0.0 2.0 0.00 0.08 0.00 68 1020.4
20260507071645 42 196 1.0 3.0 0.00 0.08 0.00 65 1020.5
20260507070613 42 196 2.0 2.0 0.00 0.08 0.00 66 1020.5
20260507065612 42 196 1.0 3.0 0.00 0.08 0.00 69 1020.4
20260507064620 41 259 2.0 2.0 0.00 0.08 0.00 71 1020.4
20260507063619 41 258 1.0 3.0 0.00 0.08 0.00 70 1020.4
20260507062630 42 258 1.0 3.0 0.00 0.08 0.00 68 1020.4
20260507061620 42 258 0.0 1.0 0.00 0.08 0.00 66 1020.4
20260507060615 42 258 0.0 2.0 0.00 0.08 0.00 66 1020.4
20260507055618 42 258 1.0 2.0 0.00 0.08 0.08 66 1020.4
20260507054645 43 258 1.0 4.0 0.00 0.08 0.08 65 1020.4
20260507053632 44 258 2.0 4.0 0.00 0.08 0.08 63 1020.5
20260507052619 45 134 1.0 5.0 0.00 0.08 0.08 61 1020.3
20260507051625 45 162 2.0 4.0 0.00 0.08 0.08 62 1020.2
20260507050617 46 162 1.0 2.0 0.00 0.08 0.08 60 1020.2
20260507045617 47 130 0.0 3.0 0.00 0.08 0.08 58 1020.2
20260507044625 47 130 1.0 2.0 0.00 0.08 0.08 57 1020.3
20260507043616 47 130 0.0 1.0 0.00 0.08 0.08 56 1020.3
20260507042624 48 130 1.0 2.0 0.00 0.08 0.08 54 1020.3
20260507041614 49 130 0.0 1.0 0.00 0.08 0.08 53 1020.1
20260507040621 49 130 1.0 3.0 0.00 0.08 0.08 53 1020.1
20260507035626 49 181 1.0 3.0 0.00 0.08 0.08 53 1020.1
20260507034614 50 181 2.0 3.0 0.00 0.08 0.08 51 1019.9
20260507033622 51 182 0.0 2.0 0.00 0.08 0.08 48 1019.9
20260507032613 51 182 1.0 3.0 0.00 0.08 0.08 49 1019.9
20260507031626 51 180 1.0 7.0 0.00 0.08 0.08 49 1019.7
20260507030614 53 270 1.0 3.0 0.00 0.08 0.08 50 1019.4
20260507025614 54 271 2.0 3.0 0.00 0.08 0.08 45 1019.1
20260507024644 54 271 0.0 2.0 0.00 0.08 0.08 44 1018.9
20260507023619 55 271 0.0 2.0 0.00 0.08 0.08 46 1018.9
20260507022629 56 271 1.0 4.0 0.00 0.08 0.08 42 1019.0
20260507021620 59 281 0.0 0.0 0.00 0.08 0.08 32 1019.1
20260507020631 60 281 0.0 1.0 0.00 0.08 0.08 29 1018.9
20260507015615 61 281 1.0 2.0 0.00 0.08 0.08 28 1018.9
20260507014640 60 281 1.0 2.0 0.00 0.08 0.08 35 1018.9
20260507013630 60 284 3.0 5.0 0.00 0.08 0.08 30 1019.0
20260507012619 61 283 3.0 5.0 0.00 0.08 0.08 33 1018.9
20260507011630 61 239 2.0 6.0 0.00 0.08 0.08 31 1018.9
20260507010616 61 247 3.0 8.0 0.00 0.08 0.08 30 1018.9
20260507005634 62 232 2.0 7.0 0.00 0.08 0.08 29 1018.9
20260507004621 62 277 4.0 11.0 0.00 0.08 0.08 30 1018.9
20260507003632 62 263 4.0 10.0 0.00 0.08 0.08 31 1018.9
20260507002620 62 235 5.0 8.0 0.00 0.08 0.08 31 1018.9
20260507001628 62 283 5.0 10.0 0.00 0.08 0.08 28 1018.8
20260507000637 62 264 4.0 8.0 0.00 0.08 0.08 30 1018.7
20260506235617 62 277 5.0 12.0 0.00 0.08 0.08 29 1018.8
20260506234630 61 265 7.0 15.0 0.00 0.08 0.08 31 1018.8
20260506233620 62 267 7.0 13.0 0.00 0.08 0.08 32 1018.6
20260506232626 62 264 8.0 11.0 0.00 0.08 0.08 29 1018.5
20260506231614 61 260 5.0 8.0 0.00 0.08 0.08 29 1018.5
20260506230649 61 254 4.0 10.0 0.00 0.08 0.08 29 1018.5
20260506225630 62 269 9.0 12.0 0.00 0.08 0.08 34 1018.7
20260506224638 62 266 5.0 12.0 0.00 0.08 0.08 28 1018.6
20260506223625 61 263 9.0 12.0 0.00 0.08 0.08 29 1018.7
20260506222615 61 256 3.0 12.0 0.00 0.08 0.08 29 1018.8
20260506221623 61 325 11.0 16.0 0.00 0.08 0.08 29 1018.9
20260506220631 61 319 10.0 20.0 0.00 0.08 0.08 28 1019.1
20260506215612 61 279 9.0 19.0 0.00 0.08 0.08 30 1019.1
20260506214641 60 323 12.0 18.0 0.00 0.08 0.08 27 1019.3
20260506213613 60 279 13.0 24.0 0.00 0.08 0.08 30 1019.4
20260506212622 60 298 12.0 19.0 0.00 0.08 0.08 28 1019.4
20260506211632 60 265 11.0 22.0 0.00 0.08 0.08 32 1019.5
20260506210621 59 330 14.0 24.0 0.00 0.08 0.08 32 1019.5
20260506205625 58 277 12.0 15.0 0.00 0.12 0.08 38 1019.6
20260506204631 56 240 6.0 10.0 0.00 0.12 0.08 38 1019.7
20260506203620 56 124 7.0 11.0 0.00 0.12 0.08 38 1019.8
20260506202628 55 311 3.0 8.0 0.00 0.12 0.08 39 1019.9
20260506201622 55 271 5.0 8.0 0.00 0.12 0.08 40 1020.0
20260506200650 55 192 2.0 6.0 0.00 0.12 0.08 40 1020.1
20260506195632 54 263 1.0 6.0 0.00 0.13 0.08 43 1020.2
20260506194622 52 304 3.0 9.0 0.00 0.13 0.08 40 1020.2
20260506193616 53 250 4.0 8.0 0.00 0.13 0.08 42 1020.2
20260506192647 52 163 1.0 7.0 0.00 0.13 0.08 43 1020.4
20260506191634 52 360 3.0 7.0 0.00 0.13 0.08 41 1020.4
20260506190641 51 221 3.0 9.0 0.00 0.13 0.08 45 1020.5
20260506185642 50 157 1.0 8.0 0.00 0.16 0.08 46 1020.4
20260506184615 50 203 3.0 7.0 0.00 0.16 0.08 48 1020.5
20260506183625 50 37 4.0 8.0 0.00 0.16 0.08 48 1020.6
20260506182616 49 161 2.0 8.0 0.00 0.16 0.08 50 1020.8
20260506181625 49 149 4.0 9.0 0.00 0.16 0.08 52 1020.8
20260506180626 48 151 3.0 9.0 0.00 0.16 0.08 55 1020.8
20260506175646 48 136 2.0 9.0 0.00 0.19 0.08 56 1020.8
20260506174614 47 186 6.0 10.0 0.00 0.19 0.08 61 1020.7
20260506173622 47 179 2.0 9.0 0.00 0.19 0.08 61 1020.8
20260506172651 47 136 2.0 7.0 0.00 0.19 0.08 57 1020.8
20260506171621 46 84 2.0 4.0 0.00 0.19 0.08 61 1020.6
20260506170629 45 121 4.0 8.0 0.00 0.19 0.08 61 1020.6
20260506165649 45 109 5.0 9.0 0.00 0.19 0.08 59 1020.5
20260506164617 44 34 5.0 11.0 0.00 0.19 0.08 61 1020.5
20260506163630 44 104 5.0 10.0 0.00 0.19 0.08 65 1020.4
20260506162617 43 126 5.0 11.0 0.00 0.19 0.08 64 1020.4
20260506161625 43 113 9.0 12.0 0.00 0.19 0.08 64 1020.3
20260506160614 43 107 7.0 12.0 0.00 0.19 0.08 66 1020.2
20260506155617 42 93 4.0 11.0 0.00 0.19 0.08 66 1020.2
20260506154625 42 114 10.0 14.0 0.00 0.19 0.08 66 1020.1
20260506153614 41 102 8.0 14.0 0.00 0.19 0.08 67 1019.9
20260506152641 41 100 12.0 15.0 0.00 0.19 0.08 66 1019.9